#timestamp,LO_Frequency,Hit 
1504371615.6,286046995.3,N
1504371635.5,286046996.3,N
1504371655.3,286046996.4,N
1504371675.1,286046991.9,P
1504371695.9,286046994.2,N
1504371715.7,286046995.5,N
1504371735.5,286046994.9,N
1504371755.4,286046997.8,N
1504371775.2,286047000.1,N
1504371795.0,286047000.9,N
1504371795.9,286047000.9,N
1504371815.8,286047004.4,N
1504371835.6,286047002.5,N
1504371855.4,286047002.8,N
1504371875.2,286047000.2,N
1504371895.1,286047002.4,N
1504371896.0,286047002.4,N
1504371915.8,286047000.2,N
1504371935.6,286047000.9,N
1504371955.5,286046998.6,N
1504371975.3,286047001.2,N
1504371995.1,286047000.2,N
1504372015.9,286047000.2,N
1504372035.7,286047002.2,N
1504372055.5,286047004.7,N
1504372075.4,286047008.8,N
1504372095.2,286047008.7,N
1504372115.0,286047008.1,N
1504372115.9,286047008.1,N
1504372135.8,286047007.0,N
1504372155.6,286047005.3,N
1504372175.4,286047005.2,N
1504372195.3,286047007.6,N
1504372215.1,286047004.6,N
1504372216.0,286047004.6,N
1504372235.8,286047004.0,N
1504372255.7,286047005.2,N
1504372275.5,286047006.9,N
1504372295.3,286047008.7,N
1504372315.2,286047010.3,P
1504372335.9,286047003.3,N
1504372355.7,286047002.9,N
1504372375.6,286047001.9,N
1504372395.4,286047004.2,N
1504372415.2,286047004.3,N
1504372435.0,286047004.1,N
1504372435.9,286047004.1,N
1504372455.8,286047004.6,N
1504372475.6,286047005.4,N
1504372495.4,286047003.2,N
1504372515.3,286047003.3,N
1504372535.1,286047004.9,N
1504372536.0,286047004.9,N
1504372555.8,286047003.3,N
1504372575.7,286047006.0,P
1504372595.5,286047004.0,P
1504372615.3,286047004.2,P
1504372635.2,286046999.9,N
1504372655.9,286047002.0,N
1504372675.7,286047000.9,N
1504372695.6,286046999.2,N
1504372715.4,286047001.0,N
1504372735.2,286047001.7,N
1504372755.1,286047001.6,N
1504372756.0,286047001.6,N
1504372775.8,286047001.9,N
1504372795.6,286047002.2,N
1504372815.5,286047002.7,N
1504372835.3,286047000.2,N
1504372855.1,286047004.4,N
1504372875.8,286047002.3,N
1504372895.7,286047001.9,N
1504372915.5,286047003.7,N
1504372935.4,286047010.4,P
1504372955.2,286047006.8,N
1504372975.0,286047007.6,N
1504372975.9,286047007.6,N
1504372995.8,286047004.5,N
1504373015.6,286047007.4,N
1504373035.4,286047007.3,P
1504373055.3,286047002.1,P
1504373075.1,286046998.1,N
1504373076.0,286046998.1,N
1504373095.8,286047000.8,N
1504373115.7,286046995.7,N
1504373135.5,286046991.7,N
1504373155.3,286046993.2,N
1504373175.1,286046990.5,N
1504373195.9,286046994.0,N
1504373215.7,286046993.7,N
1504373235.5,286046996.0,N
1504373255.4,286046993.3,N
1504373275.2,286046995.7,N
1504373295.0,286046996.1,N
1504373295.9,286046996.1,N
1504373315.8,286046996.3,N
1504373335.6,286046993.8,N
1504373355.4,286046996.1,N
1504373375.3,286046992.2,N
1504373395.1,286046993.1,N
1504373396.0,286046993.1,N
1504373415.8,286046994.8,N
1504373435.7,286046992.1,N
1504373455.5,286046993.8,N
1504373475.3,286046991.9,N
1504373495.2,286046994.8,N
1504373515.9,286046993.0,N
1504373535.7,286046991.6,N
1504373555.6,286046991.5,N
1504373575.4,286046988.7,P
1504373595.2,286046994.2,N
1504373615.1,286046994.7,N
1504373616.0,286046994.7,N
1504373635.8,286046992.9,N
1504373655.6,286046992.7,P
1504373675.5,286046997.7,P
1504373695.3,286046997.6,N
1504373715.1,286046994.0,N
1504373735.9,286046990.5,P
1504373755.7,286046997.8,N
1504373775.5,286047001.9,N
1504373795.4,286047005.6,N
1504373815.2,286047006.5,N
1504373835.0,286047009.9,N
1504373835.9,286047009.9,N
1504373855.8,286047011.3,N
1504373875.6,286047013.7,N
1504373895.4,286047012.5,N
1504373915.3,286047017.2,N
1504373935.1,286047015.6,N
1504373936.0,286047015.6,N
1504373955.8,286047011.7,N
1504373975.6,286047013.8,N
1504373995.5,286047011.3,N
1504374015.3,286047013.3,N
1504374035.1,286047011.1,N
1504374055.9,286047013.5,N
1504374075.7,286047011.4,N
1504374095.5,286047013.7,N
1504374115.4,286047012.6,N
1504374135.2,286047012.1,N
1504374155.0,286047015.3,N
1504374155.9,286047015.3,N
1504374175.8,286047012.9,N
1504374195.6,286047013.8,N
1504374215.4,286047012.3,N
1504374235.3,286047012.1,N
1504374255.1,286047013.4,N
1504374256.0,286047013.4,N
1504374275.8,286047011.4,N
1504374295.7,286047013.7,P
1504374315.5,286047004.1,P
1504374335.3,286047000.5,N
1504374355.2,286047002.1,N
1504374375.9,286047001.4,N
1504374395.7,286047001.7,N
1504374415.6,286047005.2,N
1504374435.4,286047005.6,N
1504374455.2,286047005.1,N
1504374475.0,286047007.2,N
1504374476.0,286047007.2,N
1504374495.8,286047006.5,N
1504374515.6,286047005.9,N
1504374535.4,286047005.9,N
1504374555.3,286047001.5,N
1504374575.1,286047002.1,N
1504374595.8,286047004.3,N
1504374615.7,286046998.9,N
1504374635.5,286046999.7,N
1504374655.3,286047001.6,N
1504374675.2,286047004.8,N
1504374695.9,286047006.2,N
1504374715.7,286047006.0,N
1504374735.6,286047007.3,N
1504374755.4,286047002.7,N
1504374775.2,286047002.6,N
1504374795.1,286047000.3,N
1504374796.0,286047000.3,N
1504374815.8,286047002.6,N
1504374835.6,286046999.8,N
1504374855.5,286047002.3,N
1504374875.3,286047002.4,N
1504374895.1,286047001.3,N
1504374915.8,286047006.5,N
1504374935.7,286047004.5,N
1504374955.5,286047002.9,N
1504374975.3,286047003.9,N
1504374995.2,286047002.5,N
1504375015.0,286047001.3,N
1504375015.9,286047001.3,N
1504375035.7,286047001.6,N
1504375055.6,286046998.6,N
1504375075.4,286046996.8,N
1504375095.2,286046998.7,N
1504375115.1,286047000.5,N
1504375116.0,286047000.5,N
1504375135.8,286046998.1,N
1504375155.6,286046998.3,N
1504375175.5,286046997.4,N
1504375195.3,286046993.9,N
